owner,sensor,date,latitude,longitude,sea_surface_height_above_sea_level,qcFlag 
COMPS,ioos:station:USF.COMPS:FHP:1,2017-12-01T00:00:00Z,28.1530,-82.8010,-9.728,1111122 
COMPS,ioos:station:USF.COMPS:FHP:1,2017-12-01T00:06:00Z,28.1530,-82.8010,-9.713,1111122 
COMPS,ioos:station:USF.COMPS:FHP:1,2017-12-01T00:12:00Z,28.1530,-82.8010,-9.695,1111122 
COMPS,ioos:station:USF.COMPS:FHP:1,2017-12-01T00:18:00Z,28.1530,-82.8010,-9.673,1111122 
COMPS,ioos:station:USF.COMPS:FHP:1,2017-12-01T00:24:00Z,28.1530,-82.8010,-9.66,1111122 
COMPS,ioos:station:USF.COMPS:FHP:1,2017-12-01T00:30:00Z,28.1530,-82.8010,-9.641,1111122 
COMPS,ioos:station:USF.COMPS:FHP:1,2017-12-01T00:36:00Z,28.1530,-82.8010,-9.626,1111122 
COMPS,ioos:station:USF.COMPS:FHP:1,2017-12-01T00:42:00Z,28.1530,-82.8010,-9.607,1111122 
COMPS,ioos:station:USF.COMPS:FHP:1,2017-12-01T00:48:00Z,28.1530,-82.8010,-9.598,1111122 
COMPS,ioos:station:USF.COMPS:FHP:1,2017-12-01T00:54:00Z,28.1530,-82.8010,-9.582,1111122 
COMPS,ioos:station:USF.COMPS:FHP:1,2017-12-01T01:00:00Z,28.1530,-82.8010,-9.574,1111122 
COMPS,ioos:station:USF.COMPS:FHP:1,2017-12-01T01:06:00Z,28.1530,-82.8010,-9.557,1111122 
COMPS,ioos:station:USF.COMPS:FHP:1,2017-12-01T01:12:00Z,28.1530,-82.8010,-9.552,1111122 
COMPS,ioos:station:USF.COMPS:FHP:1,2017-12-01T01:18:00Z,28.1530,-82.8010,-9.55,1111122 
COMPS,ioos:station:USF.COMPS:FHP:1,2017-12-01T01:24:00Z,28.1530,-82.8010,-9.547,1111122 
COMPS,ioos:station:USF.COMPS:FHP:1,2017-12-01T01:30:00Z,28.1530,-82.8010,-9.542,1111122 
COMPS,ioos:station:USF.COMPS:FHP:1,2017-12-01T01:36:00Z,28.1530,-82.8010,-9.535,1111122 
COMPS,ioos:station:USF.COMPS:FHP:1,2017-12-01T01:42:00Z,28.1530,-82.8010,-9.531,1111122 
COMPS,ioos:station:USF.COMPS:FHP:1,2017-12-01T01:48:00Z,28.1530,-82.8010,-9.525,1111122 
COMPS,ioos:station:USF.COMPS:FHP:1,2017-12-01T01:54:00Z,28.1530,-82.8010,-9.523,1111122 
COMPS,ioos:station:USF.COMPS:FHP:1,2017-12-01T02:00:00Z,28.1530,-82.8010,-9.524,1111122 
COMPS,ioos:station:USF.COMPS:FHP:1,2017-12-01T02:06:00Z,28.1530,-82.8010,-9.521,1111122 
COMPS,ioos:station:USF.COMPS:FHP:1,2017-12-01T02:12:00Z,28.1530,-82.8010,-9.522,1111122 
COMPS,ioos:station:USF.COMPS:FHP:1,2017-12-01T02:18:00Z,28.1530,-82.8010,-9.523,1111122 
COMPS,ioos:station:USF.COMPS:FHP:1,2017-12-01T02:24:00Z,28.1530,-82.8010,-9.521,1111122 
COMPS,ioos:station:USF.COMPS:FHP:1,2017-12-01T02:30:00Z,28.1530,-82.8010,-9.521,1111122 
COMPS,ioos:station:USF.COMPS:FHP:1,2017-12-01T02:36:00Z,28.1530,-82.8010,-9.526,1111122 
COMPS,ioos:station:USF.COMPS:FHP:1,2017-12-01T02:42:00Z,28.1530,-82.8010,-9.523,1111122 
COMPS,ioos:station:USF.COMPS:FHP:1,2017-12-01T02:48:00Z,28.1530,-82.8010,-9.528,1111122 
COMPS,ioos:station:USF.COMPS:FHP:1,2017-12-01T02:54:00Z,28.1530,-82.8010,-9.534,1111122 
COMPS,ioos:station:USF.COMPS:FHP:1,2017-12-01T03:00:00Z,28.1530,-82.8010,-9.535,1111122 
COMPS,ioos:station:USF.COMPS:FHP:1,2017-12-01T03:06:00Z,28.1530,-82.8010,-9.54,1111122 
COMPS,ioos:station:USF.COMPS:FHP:1,2017-12-01T03:12:00Z,28.1530,-82.8010,-9.55,1111122 
COMPS,ioos:station:USF.COMPS:FHP:1,2017-12-01T03:18:00Z,28.1530,-82.8010,-9.558,1111122 
COMPS,ioos:station:USF.COMPS:FHP:1,2017-12-01T03:24:00Z,28.1530,-82.8010,-9.567,1111122 
COMPS,ioos:station:USF.COMPS:FHP:1,2017-12-01T03:30:00Z,28.1530,-82.8010,-9.584,1111122 
COMPS,ioos:station:USF.COMPS:FHP:1,2017-12-01T03:36:00Z,28.1530,-82.8010,-9.593,1111122 
COMPS,ioos:station:USF.COMPS:FHP:1,2017-12-01T03:42:00Z,28.1530,-82.8010,-9.608,1111122 
COMPS,ioos:station:USF.COMPS:FHP:1,2017-12-01T03:48:00Z,28.1530,-82.8010,-9.62,1111122 
COMPS,ioos:station:USF.COMPS:FHP:1,2017-12-01T03:54:00Z,28.1530,-82.8010,-9.632,1111122 
COMPS,ioos:station:USF.COMPS:FHP:1,2017-12-01T04:00:00Z,28.1530,-82.8010,-9.64,1111122 
COMPS,ioos:station:USF.COMPS:FHP:1,2017-12-01T04:06:00Z,28.1530,-82.8010,-9.655,1111122 
COMPS,ioos:station:USF.COMPS:FHP:1,2017-12-01T04:12:00Z,28.1530,-82.8010,-9.675,1111122 
COMPS,ioos:station:USF.COMPS:FHP:1,2017-12-01T04:18:00Z,28.1530,-82.8010,-9.7,1111122 
COMPS,ioos:station:USF.COMPS:FHP:1,2017-12-01T04:24:00Z,28.1530,-82.8010,-9.718,1111122 
COMPS,ioos:station:USF.COMPS:FHP:1,2017-12-01T04:30:00Z,28.1530,-82.8010,-9.743,1111122 
COMPS,ioos:station:USF.COMPS:FHP:1,2017-12-01T04:36:00Z,28.1530,-82.8010,-9.761,1111122 
COMPS,ioos:station:USF.COMPS:FHP:1,2017-12-01T04:42:00Z,28.1530,-82.8010,-9.779,1111122 
COMPS,ioos:station:USF.COMPS:FHP:1,2017-12-01T04:48:00Z,28.1530,-82.8010,-9.8,1111122 
COMPS,ioos:station:USF.COMPS:FHP:1,2017-12-01T04:54:00Z,28.1530,-82.8010,-9.819,1111122 
COMPS,ioos:station:USF.COMPS:FHP:1,2017-12-01T05:00:00Z,28.1530,-82.8010,-9.839,1111122 
COMPS,ioos:station:USF.COMPS:FHP:1,2017-12-01T05:06:00Z,28.1530,-82.8010,-9.864,1111122 
COMPS,ioos:station:USF.COMPS:FHP:1,2017-12-01T05:12:00Z,28.1530,-82.8010,-9.876,1111122 
COMPS,ioos:station:USF.COMPS:FHP:1,2017-12-01T05:18:00Z,28.1530,-82.8010,-9.892,1111122 
COMPS,ioos:station:USF.COMPS:FHP:1,2017-12-01T05:24:00Z,28.1530,-82.8010,-9.908,1111122 
COMPS,ioos:station:USF.COMPS:FHP:1,2017-12-01T05:30:00Z,28.1530,-82.8010,-9.929,1111122 
COMPS,ioos:station:USF.COMPS:FHP:1,2017-12-01T05:36:00Z,28.1530,-82.8010,-9.96,1111122 
COMPS,ioos:station:USF.COMPS:FHP:1,2017-12-01T05:42:00Z,28.1530,-82.8010,-9.984,1111122 
COMPS,ioos:station:USF.COMPS:FHP:1,2017-12-01T12:54:00Z,28.1530,-82.8010,-9.978,1111122 
COMPS,ioos:station:USF.COMPS:FHP:1,2017-12-01T13:00:00Z,28.1530,-82.8010,-9.956,1111122 
COMPS,ioos:station:USF.COMPS:FHP:1,2017-12-01T13:06:00Z,28.1530,-82.8010,-9.932,1111122 
COMPS,ioos:station:USF.COMPS:FHP:1,2017-12-01T13:12:00Z,28.1530,-82.8010,-9.909,1111122 
COMPS,ioos:station:USF.COMPS:FHP:1,2017-12-01T13:18:00Z,28.1530,-82.8010,-9.887,1111122 
COMPS,ioos:station:USF.COMPS:FHP:1,2017-12-01T13:24:00Z,28.1530,-82.8010,-9.869,1111122 
COMPS,ioos:station:USF.COMPS:FHP:1,2017-12-01T13:30:00Z,28.1530,-82.8010,-9.848,1111122 
COMPS,ioos:station:USF.COMPS:FHP:1,2017-12-01T13:36:00Z,28.1530,-82.8010,-9.829,1111122 
COMPS,ioos:station:USF.COMPS:FHP:1,2017-12-01T13:42:00Z,28.1530,-82.8010,-9.814,1111122 
COMPS,ioos:station:USF.COMPS:FHP:1,2017-12-01T13:48:00Z,28.1530,-82.8010,-9.796,1111122 
COMPS,ioos:station:USF.COMPS:FHP:1,2017-12-01T13:54:00Z,28.1530,-82.8010,-9.779,1111122 
COMPS,ioos:station:USF.COMPS:FHP:1,2017-12-01T14:00:00Z,28.1530,-82.8010,-9.767,1111122 
COMPS,ioos:station:USF.COMPS:FHP:1,2017-12-01T14:06:00Z,28.1530,-82.8010,-9.745,1111122 
COMPS,ioos:station:USF.COMPS:FHP:1,2017-12-01T14:12:00Z,28.1530,-82.8010,-9.738,1111122 
COMPS,ioos:station:USF.COMPS:FHP:1,2017-12-01T14:18:00Z,28.1530,-82.8010,-9.728,1111122 
COMPS,ioos:station:USF.COMPS:FHP:1,2017-12-01T14:24:00Z,28.1530,-82.8010,-9.714,1111122 
COMPS,ioos:station:USF.COMPS:FHP:1,2017-12-01T14:30:00Z,28.1530,-82.8010,-9.705,1111122 
COMPS,ioos:station:USF.COMPS:FHP:1,2017-12-01T14:36:00Z,28.1530,-82.8010,-9.688,1111122 
COMPS,ioos:station:USF.COMPS:FHP:1,2017-12-01T14:42:00Z,28.1530,-82.8010,-9.677,1111122 
COMPS,ioos:station:USF.COMPS:FHP:1,2017-12-01T14:48:00Z,28.1530,-82.8010,-9.667,1111122 
COMPS,ioos:station:USF.COMPS:FHP:1,2017-12-01T14:54:00Z,28.1530,-82.8010,-9.664,1111122 
COMPS,ioos:station:USF.COMPS:FHP:1,2017-12-01T15:00:00Z,28.1530,-82.8010,-9.661,1111122 
COMPS,ioos:station:USF.COMPS:FHP:1,2017-12-01T15:06:00Z,28.1530,-82.8010,-9.664,1111122 
COMPS,ioos:station:USF.COMPS:FHP:1,2017-12-01T15:12:00Z,28.1530,-82.8010,-9.663,1111122 
COMPS,ioos:station:USF.COMPS:FHP:1,2017-12-01T15:18:00Z,28.1530,-82.8010,-9.659,1111122 
COMPS,ioos:station:USF.COMPS:FHP:1,2017-12-01T15:24:00Z,28.1530,-82.8010,-9.65,1111122 
COMPS,ioos:station:USF.COMPS:FHP:1,2017-12-01T15:30:00Z,28.1530,-82.8010,-9.656,1111122 
COMPS,ioos:station:USF.COMPS:FHP:1,2017-12-01T15:36:00Z,28.1530,-82.8010,-9.656,1111122 
COMPS,ioos:station:USF.COMPS:FHP:1,2017-12-01T15:42:00Z,28.1530,-82.8010,-9.654,1111122 
COMPS,ioos:station:USF.COMPS:FHP:1,2017-12-01T15:48:00Z,28.1530,-82.8010,-9.664,1111122 
COMPS,ioos:station:USF.COMPS:FHP:1,2017-12-01T15:54:00Z,28.1530,-82.8010,-9.668,1111122 
COMPS,ioos:station:USF.COMPS:FHP:1,2017-12-01T16:00:00Z,28.1530,-82.8010,-9.663,1111122 
COMPS,ioos:station:USF.COMPS:FHP:1,2017-12-01T16:06:00Z,28.1530,-82.8010,-9.664,1111122 
COMPS,ioos:station:USF.COMPS:FHP:1,2017-12-01T16:12:00Z,28.1530,-82.8010,-9.677,1111122 
COMPS,ioos:station:USF.COMPS:FHP:1,2017-12-01T16:18:00Z,28.1530,-82.8010,-9.684,1111122 
COMPS,ioos:station:USF.COMPS:FHP:1,2017-12-01T16:24:00Z,28.1530,-82.8010,-9.697,1111122 
COMPS,ioos:station:USF.COMPS:FHP:1,2017-12-01T16:30:00Z,28.1530,-82.8010,-9.697,1111122 
COMPS,ioos:station:USF.COMPS:FHP:1,2017-12-01T16:36:00Z,28.1530,-82.8010,-9.705,1111122 
COMPS,ioos:station:USF.COMPS:FHP:1,2017-12-01T16:42:00Z,28.1530,-82.8010,-9.714,1111122 
COMPS,ioos:station:USF.COMPS:FHP:1,2017-12-01T16:48:00Z,28.1530,-82.8010,-9.722,1111122 
COMPS,ioos:station:USF.COMPS:FHP:1,2017-12-01T16:54:00Z,28.1530,-82.8010,-9.732,1111122 
COMPS,ioos:station:USF.COMPS:FHP:1,2017-12-01T17:00:00Z,28.1530,-82.8010,-9.742,1111122 
COMPS,ioos:station:USF.COMPS:FHP:1,2017-12-01T17:06:00Z,28.1530,-82.8010,-9.759,1111122 
COMPS,ioos:station:USF.COMPS:FHP:1,2017-12-01T17:12:00Z,28.1530,-82.8010,-9.771,1111122 
COMPS,ioos:station:USF.COMPS:FHP:1,2017-12-01T17:18:00Z,28.1530,-82.8010,-9.786,1111122 
COMPS,ioos:station:USF.COMPS:FHP:1,2017-12-01T17:24:00Z,28.1530,-82.8010,-9.797,1111122 
COMPS,ioos:station:USF.COMPS:FHP:1,2017-12-01T17:30:00Z,28.1530,-82.8010,-9.809,1111122 
COMPS,ioos:station:USF.COMPS:FHP:1,2017-12-01T17:36:00Z,28.1530,-82.8010,-9.818,1111122 
COMPS,ioos:station:USF.COMPS:FHP:1,2017-12-01T17:42:00Z,28.1530,-82.8010,-9.833,1111122 
COMPS,ioos:station:USF.COMPS:FHP:1,2017-12-01T17:48:00Z,28.1530,-82.8010,-9.842,1111122 
COMPS,ioos:station:USF.COMPS:FHP:1,2017-12-01T17:54:00Z,28.1530,-82.8010,-9.856,1111122 
COMPS,ioos:station:USF.COMPS:FHP:1,2017-12-01T18:00:00Z,28.1530,-82.8010,-9.87,1111122 
COMPS,ioos:station:USF.COMPS:FHP:1,2017-12-01T18:06:00Z,28.1530,-82.8010,-9.883,1111122 
COMPS,ioos:station:USF.COMPS:FHP:1,2017-12-01T18:12:00Z,28.1530,-82.8010,-9.897,1111122 
COMPS,ioos:station:USF.COMPS:FHP:1,2017-12-01T18:18:00Z,28.1530,-82.8010,-9.915,1111122 
COMPS,ioos:station:USF.COMPS:FHP:1,2017-12-01T18:24:00Z,28.1530,-82.8010,-9.926,1111122 
COMPS,ioos:station:USF.COMPS:FHP:1,2017-12-01T18:30:00Z,28.1530,-82.8010,-9.945,1111122 
COMPS,ioos:station:USF.COMPS:FHP:1,2017-12-01T18:36:00Z,28.1530,-82.8010,-9.959,1111122 
COMPS,ioos:station:USF.COMPS:FHP:1,2017-12-01T18:42:00Z,28.1530,-82.8010,-9.978,1111122 
COMPS,ioos:station:USF.COMPS:FHP:1,2017-12-01T18:48:00Z,28.1530,-82.8010,-9.993,1111122 
COMPS,ioos:station:USF.COMPS:FHP:1,2017-12-01T22:48:00Z,28.1530,-82.8010,-9.999,1111122 
COMPS,ioos:station:USF.COMPS:FHP:1,2017-12-01T22:54:00Z,28.1530,-82.8010,-9.984,1111122 
COMPS,ioos:station:USF.COMPS:FHP:1,2017-12-01T23:00:00Z,28.1530,-82.8010,-9.966,1111122 
COMPS,ioos:station:USF.COMPS:FHP:1,2017-12-01T23:06:00Z,28.1530,-82.8010,-9.943,1111122 
COMPS,ioos:station:USF.COMPS:FHP:1,2017-12-01T23:12:00Z,28.1530,-82.8010,-9.923,1111122 
COMPS,ioos:station:USF.COMPS:FHP:1,2017-12-01T23:18:00Z,28.1530,-82.8010,-9.902,1111122 
COMPS,ioos:station:USF.COMPS:FHP:1,2017-12-01T23:24:00Z,28.1530,-82.8010,-9.88,1111122 
COMPS,ioos:station:USF.COMPS:FHP:1,2017-12-01T23:30:00Z,28.1530,-82.8010,-9.861,1111122 
COMPS,ioos:station:USF.COMPS:FHP:1,2017-12-01T23:36:00Z,28.1530,-82.8010,-9.843,1111122 
COMPS,ioos:station:USF.COMPS:FHP:1,2017-12-01T23:42:00Z,28.1530,-82.8010,-9.826,1111122 
COMPS,ioos:station:USF.COMPS:FHP:1,2017-12-01T23:48:00Z,28.1530,-82.8010,-9.805,1111122 
COMPS,ioos:station:USF.COMPS:FHP:1,2017-12-01T23:54:00Z,28.1530,-82.8010,-9.785,1111122 
COMPS,ioos:station:USF.COMPS:FHP:1,2017-12-02T00:00:00Z,28.1530,-82.8010,-9.764,1111122 
COMPS,ioos:station:USF.COMPS:FHP:1,2017-12-02T00:06:00Z,28.1530,-82.8010,-9.747,1111122 
COMPS,ioos:station:USF.COMPS:FHP:1,2017-12-02T00:12:00Z,28.1530,-82.8010,-9.727,1111122 
COMPS,ioos:station:USF.COMPS:FHP:1,2017-12-02T00:18:00Z,28.1530,-82.8010,-9.71,1111122 
COMPS,ioos:station:USF.COMPS:FHP:1,2017-12-02T00:24:00Z,28.1530,-82.8010,-9.696,1111122 
COMPS,ioos:station:USF.COMPS:FHP:1,2017-12-02T00:30:00Z,28.1530,-82.8010,-9.679,1111122 
COMPS,ioos:station:USF.COMPS:FHP:1,2017-12-02T00:36:00Z,28.1530,-82.8010,-9.662,1111122 
COMPS,ioos:station:USF.COMPS:FHP:1,2017-12-02T00:42:00Z,28.1530,-82.8010,-9.648,1111122 
COMPS,ioos:station:USF.COMPS:FHP:1,2017-12-02T00:48:00Z,28.1530,-82.8010,-9.632,1111122 
COMPS,ioos:station:USF.COMPS:FHP:1,2017-12-02T00:54:00Z,28.1530,-82.8010,-9.615,1111122 
COMPS,ioos:station:USF.COMPS:FHP:1,2017-12-02T01:00:00Z,28.1530,-82.8010,-9.597,1111122 
COMPS,ioos:station:USF.COMPS:FHP:1,2017-12-02T01:06:00Z,28.1530,-82.8010,-9.577,1111122 
COMPS,ioos:station:USF.COMPS:FHP:1,2017-12-02T01:12:00Z,28.1530,-82.8010,-9.566,1111122 
COMPS,ioos:station:USF.COMPS:FHP:1,2017-12-02T01:18:00Z,28.1530,-82.8010,-9.547,1111122 
COMPS,ioos:station:USF.COMPS:FHP:1,2017-12-02T01:24:00Z,28.1530,-82.8010,-9.535,1111122 
COMPS,ioos:station:USF.COMPS:FHP:1,2017-12-02T01:30:00Z,28.1530,-82.8010,-9.517,1111122 
COMPS,ioos:station:USF.COMPS:FHP:1,2017-12-02T01:36:00Z,28.1530,-82.8010,-9.501,1111122 
COMPS,ioos:station:USF.COMPS:FHP:1,2017-12-02T01:42:00Z,28.1530,-82.8010,-9.482,1111122 
COMPS,ioos:station:USF.COMPS:FHP:1,2017-12-02T01:48:00Z,28.1530,-82.8010,-9.468,1111122 
COMPS,ioos:station:USF.COMPS:FHP:1,2017-12-02T01:54:00Z,28.1530,-82.8010,-9.459,1111122 
COMPS,ioos:station:USF.COMPS:FHP:1,2017-12-02T02:00:00Z,28.1530,-82.8010,-9.448,1111122 
COMPS,ioos:station:USF.COMPS:FHP:1,2017-12-02T02:06:00Z,28.1530,-82.8010,-9.434,1111122 
COMPS,ioos:station:USF.COMPS:FHP:1,2017-12-02T02:12:00Z,28.1530,-82.8010,-9.423,1111122 
COMPS,ioos:station:USF.COMPS:FHP:1,2017-12-02T02:18:00Z,28.1530,-82.8010,-9.414,1111122 
COMPS,ioos:station:USF.COMPS:FHP:1,2017-12-02T02:24:00Z,28.1530,-82.8010,-9.41,1111122 
COMPS,ioos:station:USF.COMPS:FHP:1,2017-12-02T02:30:00Z,28.1530,-82.8010,-9.404,1111122 
COMPS,ioos:station:USF.COMPS:FHP:1,2017-12-02T02:36:00Z,28.1530,-82.8010,-9.399,1111122 
COMPS,ioos:station:USF.COMPS:FHP:1,2017-12-02T02:42:00Z,28.1530,-82.8010,-9.397,1111122 
COMPS,ioos:station:USF.COMPS:FHP:1,2017-12-02T02:48:00Z,28.1530,-82.8010,-9.391,1111122 
COMPS,ioos:station:USF.COMPS:FHP:1,2017-12-02T02:54:00Z,28.1530,-82.8010,-9.388,1111122 
COMPS,ioos:station:USF.COMPS:FHP:1,2017-12-02T03:00:00Z,28.1530,-82.8010,-9.394,1111122 
COMPS,ioos:station:USF.COMPS:FHP:1,2017-12-02T03:06:00Z,28.1530,-82.8010,-9.397,1111122 
COMPS,ioos:station:USF.COMPS:FHP:1,2017-12-02T03:12:00Z,28.1530,-82.8010,-9.402,1111122 
COMPS,ioos:station:USF.COMPS:FHP:1,2017-12-02T03:18:00Z,28.1530,-82.8010,-9.409,1111122 
COMPS,ioos:station:USF.COMPS:FHP:1,2017-12-02T03:24:00Z,28.1530,-82.8010,-9.411,1111122 
COMPS,ioos:station:USF.COMPS:FHP:1,2017-12-02T03:30:00Z,28.1530,-82.8010,-9.417,1111122 
COMPS,ioos:station:USF.COMPS:FHP:1,2017-12-02T03:36:00Z,28.1530,-82.8010,-9.424,1111122 
COMPS,ioos:station:USF.COMPS:FHP:1,2017-12-02T03:42:00Z,28.1530,-82.8010,-9.436,1111122 
COMPS,ioos:station:USF.COMPS:FHP:1,2017-12-02T03:48:00Z,28.1530,-82.8010,-9.445,1111122 
COMPS,ioos:station:USF.COMPS:FHP:1,2017-12-02T03:54:00Z,28.1530,-82.8010,-9.456,1111122 
COMPS,ioos:station:USF.COMPS:FHP:1,2017-12-02T04:00:00Z,28.1530,-82.8010,-9.46,1111122 
COMPS,ioos:station:USF.COMPS:FHP:1,2017-12-02T04:06:00Z,28.1530,-82.8010,-9.472,1111122 
COMPS,ioos:station:USF.COMPS:FHP:1,2017-12-02T04:12:00Z,28.1530,-82.8010,-9.483,1111122 
COMPS,ioos:station:USF.COMPS:FHP:1,2017-12-02T04:18:00Z,28.1530,-82.8010,-9.493,1111122 
COMPS,ioos:station:USF.COMPS:FHP:1,2017-12-02T04:24:00Z,28.1530,-82.8010,-9.509,1111122 
COMPS,ioos:station:USF.COMPS:FHP:1,2017-12-02T04:30:00Z,28.1530,-82.8010,-9.527,1111122 
COMPS,ioos:station:USF.COMPS:FHP:1,2017-12-02T04:36:00Z,28.1530,-82.8010,-9.542,1111122 
COMPS,ioos:station:USF.COMPS:FHP:1,2017-12-02T04:42:00Z,28.1530,-82.8010,-9.563,1111122 
COMPS,ioos:station:USF.COMPS:FHP:1,2017-12-02T04:48:00Z,28.1530,-82.8010,-9.578,1111122 
COMPS,ioos:station:USF.COMPS:FHP:1,2017-12-02T04:54:00Z,28.1530,-82.8010,-9.593,1111122 
COMPS,ioos:station:USF.COMPS:FHP:1,2017-12-02T05:00:00Z,28.1530,-82.8010,-9.618,1111122 
COMPS,ioos:station:USF.COMPS:FHP:1,2017-12-02T05:06:00Z,28.1530,-82.8010,-9.632,1111122 
COMPS,ioos:station:USF.COMPS:FHP:1,2017-12-02T05:12:00Z,28.1530,-82.8010,-9.657,1111122 
COMPS,ioos:station:USF.COMPS:FHP:1,2017-12-02T05:18:00Z,28.1530,-82.8010,-9.674,1111122 
COMPS,ioos:station:USF.COMPS:FHP:1,2017-12-02T05:24:00Z,28.1530,-82.8010,-9.697,1111122 
COMPS,ioos:station:USF.COMPS:FHP:1,2017-12-02T05:30:00Z,28.1530,-82.8010,-9.719,1111122 
COMPS,ioos:station:USF.COMPS:FHP:1,2017-12-02T05:36:00Z,28.1530,-82.8010,-9.737,1111122 
COMPS,ioos:station:USF.COMPS:FHP:1,2017-12-02T05:42:00Z,28.1530,-82.8010,-9.756,1111122 
COMPS,ioos:station:USF.COMPS:FHP:1,2017-12-02T05:48:00Z,28.1530,-82.8010,-9.777,1111122 
COMPS,ioos:station:USF.COMPS:FHP:1,2017-12-02T05:54:00Z,28.1530,-82.8010,-9.8,1111122 
COMPS,ioos:station:USF.COMPS:FHP:1,2017-12-02T06:00:00Z,28.1530,-82.8010,-9.828,1111122 
COMPS,ioos:station:USF.COMPS:FHP:1,2017-12-02T06:06:00Z,28.1530,-82.8010,-9.851,1111122 
COMPS,ioos:station:USF.COMPS:FHP:1,2017-12-02T06:12:00Z,28.1530,-82.8010,-9.876,1111122 
COMPS,ioos:station:USF.COMPS:FHP:1,2017-12-02T06:18:00Z,28.1530,-82.8010,-9.902,1111122 
COMPS,ioos:station:USF.COMPS:FHP:1,2017-12-02T06:24:00Z,28.1530,-82.8010,-9.925,1111122 
COMPS,ioos:station:USF.COMPS:FHP:1,2017-12-02T06:30:00Z,28.1530,-82.8010,-9.951,1111122 
COMPS,ioos:station:USF.COMPS:FHP:1,2017-12-02T06:36:00Z,28.1530,-82.8010,-9.979,1111122 
COMPS,ioos:station:USF.COMPS:FHP:1,2017-12-02T13:48:00Z,28.1530,-82.8010,-9.969,1111122 
COMPS,ioos:station:USF.COMPS:FHP:1,2017-12-02T13:54:00Z,28.1530,-82.8010,-9.941,1111122 
COMPS,ioos:station:USF.COMPS:FHP:1,2017-12-02T14:00:00Z,28.1530,-82.8010,-9.909,1111122 
COMPS,ioos:station:USF.COMPS:FHP:1,2017-12-02T14:06:00Z,28.1530,-82.8010,-9.882,1111122 
COMPS,ioos:station:USF.COMPS:FHP:1,2017-12-02T14:12:00Z,28.1530,-82.8010,-9.855,1111122 
COMPS,ioos:station:USF.COMPS:FHP:1,2017-12-02T14:18:00Z,28.1530,-82.8010,-9.831,1111122 
COMPS,ioos:station:USF.COMPS:FHP:1,2017-12-02T14:24:00Z,28.1530,-82.8010,-9.807,1111122 
COMPS,ioos:station:USF.COMPS:FHP:1,2017-12-02T14:30:00Z,28.1530,-82.8010,-9.787,1111122 
COMPS,ioos:station:USF.COMPS:FHP:1,2017-12-02T14:36:00Z,28.1530,-82.8010,-9.769,1111122 
COMPS,ioos:station:USF.COMPS:FHP:1,2017-12-02T14:42:00Z,28.1530,-82.8010,-9.749,1111122 
COMPS,ioos:station:USF.COMPS:FHP:1,2017-12-02T14:48:00Z,28.1530,-82.8010,-9.731,1111122 
COMPS,ioos:station:USF.COMPS:FHP:1,2017-12-02T14:54:00Z,28.1530,-82.8010,-9.716,1111122 
COMPS,ioos:station:USF.COMPS:FHP:1,2017-12-02T15:00:00Z,28.1530,-82.8010,-9.7,1111122 
COMPS,ioos:station:USF.COMPS:FHP:1,2017-12-02T15:06:00Z,28.1530,-82.8010,-9.689,1111122 
COMPS,ioos:station:USF.COMPS:FHP:1,2017-12-02T15:12:00Z,28.1530,-82.8010,-9.677,1111122 
COMPS,ioos:station:USF.COMPS:FHP:1,2017-12-02T15:18:00Z,28.1530,-82.8010,-9.664,1111122 
COMPS,ioos:station:USF.COMPS:FHP:1,2017-12-02T15:24:00Z,28.1530,-82.8010,-9.655,1111122 
COMPS,ioos:station:USF.COMPS:FHP:1,2017-12-02T15:30:00Z,28.1530,-82.8010,-9.643,1111122 
COMPS,ioos:station:USF.COMPS:FHP:1,2017-12-02T15:36:00Z,28.1530,-82.8010,-9.631,1111122 
COMPS,ioos:station:USF.COMPS:FHP:1,2017-12-02T15:42:00Z,28.1530,-82.8010,-9.623,1111122 
COMPS,ioos:station:USF.COMPS:FHP:1,2017-12-02T15:48:00Z,28.1530,-82.8010,-9.615,1111122 
COMPS,ioos:station:USF.COMPS:FHP:1,2017-12-02T15:54:00Z,28.1530,-82.8010,-9.614,1111122 
COMPS,ioos:station:USF.COMPS:FHP:1,2017-12-02T16:00:00Z,28.1530,-82.8010,-9.613,1111122 
COMPS,ioos:station:USF.COMPS:FHP:1,2017-12-02T16:06:00Z,28.1530,-82.8010,-9.605,1111122 
COMPS,ioos:station:USF.COMPS:FHP:1,2017-12-02T16:12:00Z,28.1530,-82.8010,-9.603,1111122 
COMPS,ioos:station:USF.COMPS:FHP:1,2017-12-02T16:18:00Z,28.1530,-82.8010,-9.6,1111122 
COMPS,ioos:station:USF.COMPS:FHP:1,2017-12-02T16:24:00Z,28.1530,-82.8010,-9.594,1111122 
COMPS,ioos:station:USF.COMPS:FHP:1,2017-12-02T16:30:00Z,28.1530,-82.8010,-9.594,1111122 
COMPS,ioos:station:USF.COMPS:FHP:1,2017-12-02T16:36:00Z,28.1530,-82.8010,-9.591,1111122 
COMPS,ioos:station:USF.COMPS:FHP:1,2017-12-02T16:42:00Z,28.1530,-82.8010,-9.592,1111122 
COMPS,ioos:station:USF.COMPS:FHP:1,2017-12-02T16:48:00Z,28.1530,-82.8010,-9.6,1111122 
COMPS,ioos:station:USF.COMPS:FHP:1,2017-12-02T16:54:00Z,28.1530,-82.8010,-9.604,1111122 
COMPS,ioos:station:USF.COMPS:FHP:1,2017-12-02T17:00:00Z,28.1530,-82.8010,-9.613,1111122 
COMPS,ioos:station:USF.COMPS:FHP:1,2017-12-02T17:06:00Z,28.1530,-82.8010,-9.616,1111122 
COMPS,ioos:station:USF.COMPS:FHP:1,2017-12-02T17:12:00Z,28.1530,-82.8010,-9.623,1111122 
COMPS,ioos:station:USF.COMPS:FHP:1,2017-12-02T17:18:00Z,28.1530,-82.8010,-9.638,1111122 
COMPS,ioos:station:USF.COMPS:FHP:1,2017-12-02T17:24:00Z,28.1530,-82.8010,-9.634,1111122 
COMPS,ioos:station:USF.COMPS:FHP:1,2017-12-02T17:30:00Z,28.1530,-82.8010,-9.653,1111122 
COMPS,ioos:station:USF.COMPS:FHP:1,2017-12-02T17:36:00Z,28.1530,-82.8010,-9.662,1111122 
COMPS,ioos:station:USF.COMPS:FHP:1,2017-12-02T17:42:00Z,28.1530,-82.8010,-9.671,1111122 
COMPS,ioos:station:USF.COMPS:FHP:1,2017-12-02T17:48:00Z,28.1530,-82.8010,-9.688,1111122 
COMPS,ioos:station:USF.COMPS:FHP:1,2017-12-02T17:54:00Z,28.1530,-82.8010,-9.703,1111122 
COMPS,ioos:station:USF.COMPS:FHP:1,2017-12-02T18:00:00Z,28.1530,-82.8010,-9.717,1111122 
COMPS,ioos:station:USF.COMPS:FHP:1,2017-12-02T18:06:00Z,28.1530,-82.8010,-9.733,1111122 
COMPS,ioos:station:USF.COMPS:FHP:1,2017-12-02T18:12:00Z,28.1530,-82.8010,-9.743,1111122 
COMPS,ioos:station:USF.COMPS:FHP:1,2017-12-02T18:18:00Z,28.1530,-82.8010,-9.759,1111122 
COMPS,ioos:station:USF.COMPS:FHP:1,2017-12-02T18:24:00Z,28.1530,-82.8010,-9.77,1111122 
COMPS,ioos:station:USF.COMPS:FHP:1,2017-12-02T18:30:00Z,28.1530,-82.8010,-9.785,1111122 
COMPS,ioos:station:USF.COMPS:FHP:1,2017-12-02T18:36:00Z,28.1530,-82.8010,-9.8,1111122 
COMPS,ioos:station:USF.COMPS:FHP:1,2017-12-02T18:42:00Z,28.1530,-82.8010,-9.818,1111122 
COMPS,ioos:station:USF.COMPS:FHP:1,2017-12-02T18:48:00Z,28.1530,-82.8010,-9.836,1111122 
COMPS,ioos:station:USF.COMPS:FHP:1,2017-12-02T18:54:00Z,28.1530,-82.8010,-9.848,1111122 
COMPS,ioos:station:USF.COMPS:FHP:1,2017-12-02T19:00:00Z,28.1530,-82.8010,-9.864,1111122 
COMPS,ioos:station:USF.COMPS:FHP:1,2017-12-02T19:06:00Z,28.1530,-82.8010,-9.877,1111122 
COMPS,ioos:station:USF.COMPS:FHP:1,2017-12-02T19:12:00Z,28.1530,-82.8010,-9.898,1111122 
COMPS,ioos:station:USF.COMPS:FHP:1,2017-12-02T19:18:00Z,28.1530,-82.8010,-9.911,1111122 
COMPS,ioos:station:USF.COMPS:FHP:1,2017-12-02T19:24:00Z,28.1530,-82.8010,-9.924,1111122 
COMPS,ioos:station:USF.COMPS:FHP:1,2017-12-02T19:30:00Z,28.1530,-82.8010,-9.935,1111122 
COMPS,ioos:station:USF.COMPS:FHP:1,2017-12-02T19:36:00Z,28.1530,-82.8010,-9.948,1111122 
COMPS,ioos:station:USF.COMPS:FHP:1,2017-12-02T19:42:00Z,28.1530,-82.8010,-9.964,1111122 
COMPS,ioos:station:USF.COMPS:FHP:1,2017-12-02T19:48:00Z,28.1530,-82.8010,-9.972,1111122 
COMPS,ioos:station:USF.COMPS:FHP:1,2017-12-02T19:54:00Z,28.1530,-82.8010,-9.989,1111122 
COMPS,ioos:station:USF.COMPS:FHP:1,2017-12-02T23:12:00Z,28.1530,-82.8010,-9.998,1111122 
COMPS,ioos:station:USF.COMPS:FHP:1,2017-12-02T23:18:00Z,28.1530,-82.8010,-9.982,1111122 
COMPS,ioos:station:USF.COMPS:FHP:1,2017-12-02T23:24:00Z,28.1530,-82.8010,-9.966,1111122 
COMPS,ioos:station:USF.COMPS:FHP:1,2017-12-02T23:30:00Z,28.1530,-82.8010,-9.951,1111122 
COMPS,ioos:station:USF.COMPS:FHP:1,2017-12-02T23:36:00Z,28.1530,-82.8010,-9.932,1111122 
COMPS,ioos:station:USF.COMPS:FHP:1,2017-12-02T23:42:00Z,28.1530,-82.8010,-9.915,1111122 
COMPS,ioos:station:USF.COMPS:FHP:1,2017-12-02T23:48:00Z,28.1530,-82.8010,-9.895,1111122 
COMPS,ioos:station:USF.COMPS:FHP:1,2017-12-02T23:54:00Z,28.1530,-82.8010,-9.878,1111122 
COMPS,ioos:station:USF.COMPS:FHP:1,2017-12-03T00:00:00Z,28.1530,-82.8010,-9.858,1111122 
COMPS,ioos:station:USF.COMPS:FHP:1,2017-12-03T00:06:00Z,28.1530,-82.8010,-9.836,1111122 